When you browse on this site, cookies collect data to enhance your experience and personalize the content and advertising you see.
Visit our Privacy Policy to learn more. By continuing to use the site, you agree to this use of cookies and data.
  • Em Portugal
  • Lista de países
  • Para 7 dias
  • Temperatura da água
  • Mapa do tempo
  • Widgets de tempo
  • user-avatar
    Iniciar Sessão

    Previsão horária em Querns

    Hoje, 23 Agosto, Sexta-feira

    Tempo Temperatura Precipitação Vento Pressão Humidade
    00:00 +14°C° 0 mm 2 m/s 762 mmHg 54%
    01:00 +14°C° 0 mm 2 m/s 762 mmHg 51%
    02:00 +14°C° 0 mm 2 m/s 762 mmHg 50%
    03:00 +14°C° 0 mm 2 m/s 762 mmHg 49%
    04:00 +14°C° 0 mm 2 m/s 762 mmHg 47%
    05:00 +14°C° 0 mm 2 m/s 762 mmHg 47%
    06:00 +14°C° 0 mm 2 m/s 762 mmHg 47%
    07:00 +14°C° 0 mm 2 m/s 763 mmHg 47%
    08:00 +18°C° 0 mm 2 m/s 763 mmHg 39%
    09:00 +23°C° 0 mm 2 m/s 763 mmHg 30%
    10:00 +28°C° 0 mm 2 m/s 763 mmHg 19%
    11:00 +29°C° 0 mm 3 m/s 763 mmHg 19%
    12:00 +29°C° 0 mm 4 m/s 762 mmHg 20%
    13:00 +29°C° 0 mm 5 m/s 762 mmHg 20%
    14:00 +28°C° 0 mm 5 m/s 762 mmHg 24%
    15:00 +27°C° 0 mm 5 m/s 762 mmHg 27%
    16:00 +27°C° 0 mm 5 m/s 762 mmHg 30%
    17:00 +23°C° 0 mm 4 m/s 762 mmHg 44%
    18:00 +20°C° 0 mm 4 m/s 762 mmHg 58%
    19:00 +17°C° 0 mm 4 m/s 763 mmHg 72%
    20:00 +16°C° 0 mm 3 m/s 763 mmHg 78%
    21:00 +16°C° 0 mm 3 m/s 763 mmHg 84%
    22:00 +14°C° 0 mm 3 m/s 763 mmHg 90%
    23:00 +14°C° 0 mm 3 m/s 763 mmHg 91%

    Amanhã, 24 Agosto, Sábado

    Tempo Temperatura Precipitação Vento Pressão Humidade
    00:00 +14°C° 0 mm 3 m/s 763 mmHg 93%
    01:00 +14°C° 0 mm 3 m/s 763 mmHg 94%
    02:00 +14°C° 0 mm 3 m/s 763 mmHg 95%
    03:00 +14°C° 0 mm 3 m/s 763 mmHg 95%
    04:00 +14°C° 0 mm 3 m/s 763 mmHg 96%
    05:00 +14°C° 0 mm 3 m/s 763 mmHg 96%
    06:00 +16°C° 0 mm 3 m/s 763 mmHg 96%
    07:00 +16°C° 0 mm 3 m/s 763 mmHg 95%
    08:00 +19°C° 0 mm 4 m/s 764 mmHg 81%
    09:00 +21°C° 0 mm 4 m/s 764 mmHg 68%
    10:00 +25°C° 0 mm 5 m/s 764 mmHg 54%
    11:00 +26°C° 0 mm 5 m/s 763 mmHg 52%
    12:00 +27°C° 0 mm 5 m/s 763 mmHg 50%
    13:00 +28°C° 0 mm 5 m/s 762 mmHg 48%
    14:00 +27°C° 0 mm 5 m/s 762 mmHg 49%
    15:00 +27°C° 0 mm 4 m/s 761 mmHg 50%
    16:00 +26°C° 0 mm 4 m/s 761 mmHg 52%
    17:00 +23°C° 0 mm 4 m/s 761 mmHg 62%
    18:00 +20°C° 0 mm 3 m/s 762 mmHg 73%
    19:00 +18°C° 0 mm 3 m/s 762 mmHg 83%
    20:00 +17°C° 0 mm 3 m/s 763 mmHg 85%
    21:00 +17°C° 0 mm 3 m/s 763 mmHg 87%
    22:00 +16°C° 0 mm 3 m/s 763 mmHg 88%
    23:00 +16°C° 0 mm 3 m/s 763 mmHg 89%

    Depois de amanhã, 25 Agosto, Domingo

    Tempo Temperatura Precipitação Vento Pressão Humidade
    00:00 +16°C° 0 mm 2 m/s 762 mmHg 90%
    01:00 +16°C° 0 mm 2 m/s 762 mmHg 91%
    02:00 +16°C° 0 mm 2 m/s 762 mmHg 91%
    03:00 +16°C° 0 mm 3 m/s 762 mmHg 92%
    04:00 +16°C° 0 mm 3 m/s 761 mmHg 92%
    05:00 +17°C° 0 mm 3 m/s 762 mmHg 93%
    06:00 +17°C° 0 mm 3 m/s 762 mmHg 94%
    07:00 +17°C° 0 mm 3 m/s 762 mmHg 94%
    08:00 +20°C° 0.1 mm 4 m/s 762 mmHg 86%
    09:00 +22°C° 0.1 mm 4 m/s 762 mmHg 77%
    10:00 +26°C° 0.1 mm 4 m/s 762 mmHg 68%
    11:00 +26°C° 0.1 mm 4 m/s 762 mmHg 65%
    12:00 +27°C° 0.1 mm 4 m/s 761 mmHg 62%
    13:00 +28°C° 0.1 mm 5 m/s 760 mmHg 59%
    14:00 +27°C° 0.1 mm 5 m/s 760 mmHg 61%
    15:00 +26°C° 0.1 mm 5 m/s 760 mmHg 64%
    16:00 +26°C° 0.1 mm 5 m/s 760 mmHg 66%
    17:00 +23°C° 0 mm 4 m/s 760 mmHg 73%
    18:00 +22°C° 0 mm 4 m/s 760 mmHg 80%
    19:00 +20°C° 0 mm 4 m/s 760 mmHg 86%
    20:00 +19°C° 0 mm 3 m/s 761 mmHg 89%
    21:00 +19°C° 0 mm 3 m/s 761 mmHg 92%
    22:00 +18°C° 0 mm 3 m/s 762 mmHg 95%
    23:00 +18°C° 0 mm 3 m/s 762 mmHg 96%

    26 Agosto, Segunda-feira

    Tempo Temperatura Precipitação Vento Pressão Humidade
    00:00 +18°C° 0 mm 2 m/s 761 mmHg 96%
    01:00 +18°C° 0 mm 2 m/s 761 mmHg 97%
    02:00 +18°C° 0 mm 2 m/s 761 mmHg 97%
    03:00 +18°C° 0 mm 2 m/s 761 mmHg 97%
    04:00 +18°C° 0 mm 2 m/s 761 mmHg 97%
    05:00 +18°C° 0 mm 3 m/s 761 mmHg 97%
    06:00 +18°C° 0 mm 3 m/s 762 mmHg 96%
    07:00 +17°C° 0 mm 3 m/s 762 mmHg 96%
    08:00 +20°C° 0 mm 3 m/s 762 mmHg 82%
    09:00 +23°C° 0 mm 4 m/s 762 mmHg 67%
    10:00 +27°C° 0 mm 4 m/s 762 mmHg 53%
    11:00 +28°C° 0 mm 4 m/s 762 mmHg 51%
    12:00 +28°C° 0 mm 5 m/s 761 mmHg 48%
    13:00 +29°C° 0 mm 5 m/s 760 mmHg 46%
    14:00 +28°C° 0 mm 5 m/s 760 mmHg 48%
    15:00 +28°C° 0 mm 5 m/s 760 mmHg 50%
    16:00 +27°C° 0 mm 5 m/s 760 mmHg 52%
    17:00 +25°C° 0 mm 4 m/s 760 mmHg 64%
    18:00 +22°C° 0 mm 4 m/s 760 mmHg 76%
    19:00 +20°C° 0 mm 3 m/s 761 mmHg 88%
    20:00 +19°C° 0 mm 3 m/s 761 mmHg 91%
    21:00 +18°C° 0 mm 3 m/s 762 mmHg 94%
    22:00 +18°C° 0 mm 3 m/s 762 mmHg 97%
    23:00 +18°C° 0 mm 3 m/s 762 mmHg 97%

    27 Agosto, Terça-feira

    Tempo Temperatura Precipitação Vento Pressão Humidade
    00:00 +18°C° 0 mm 3 m/s 762 mmHg 97%
    01:00 +18°C° 0 mm 3 m/s 762 mmHg 97%
    02:00 +17°C° 0 mm 3 m/s 761 mmHg 97%
    03:00 +17°C° 0 mm 3 m/s 761 mmHg 97%
    04:00 +17°C° 0 mm 3 m/s 761 mmHg 97%
    05:00 +17°C° 0 mm 3 m/s 761 mmHg 96%
    06:00 +17°C° 0 mm 3 m/s 762 mmHg 96%
    07:00 +17°C° 0 mm 4 m/s 763 mmHg 96%
    08:00 +20°C° 0 mm 4 m/s 763 mmHg 79%
    09:00 +23°C° 0 mm 4 m/s 763 mmHg 63%
    10:00 +27°C° 0 mm 5 m/s 763 mmHg 46%
    11:00 +28°C° 0 mm 5 m/s 762 mmHg 44%
    12:00 +29°C° 0 mm 5 m/s 762 mmHg 41%
    13:00 +30°C° 0 mm 6 m/s 761 mmHg 38%
    14:00 +29°C° 0 mm 6 m/s 761 mmHg 40%
    15:00 +28°C° 0 mm 6 m/s 760 mmHg 43%
    16:00 +28°C° 0 mm 6 m/s 760 mmHg 45%
    17:00 +25°C° 0 mm 5 m/s 761 mmHg 55%
    18:00 +22°C° 0 mm 5 m/s 761 mmHg 64%
    19:00 +19°C° 0 mm 4 m/s 762 mmHg 74%
    20:00 +19°C° 0 mm 4 m/s 762 mmHg 74%
    21:00 +18°C° 0 mm 4 m/s 762 mmHg 75%
    22:00 +18°C° 0 mm 4 m/s 763 mmHg 76%
    23:00 +17°C° 0 mm 4 m/s 762 mmHg 77%

    28 Agosto, Quarta-feira

    Tempo Temperatura Precipitação Vento Pressão Humidade
    00:00 +17°C° 0 mm 4 m/s 762 mmHg 79%
    01:00 +17°C° 0 mm 3 m/s 762 mmHg 81%
    02:00 +17°C° 0 mm 3 m/s 762 mmHg 85%
    03:00 +16°C° 0 mm 3 m/s 761 mmHg 89%
    04:00 +16°C° 0 mm 3 m/s 761 mmHg 93%
    05:00 +17°C° 0 mm 3 m/s 761 mmHg 93%
    06:00 +17°C° 0 mm 3 m/s 762 mmHg 94%
    07:00 +17°C° 0 mm 3 m/s 762 mmHg 94%
    08:00 +20°C° 0 mm 3 m/s 763 mmHg 79%
    09:00 +23°C° 0 mm 4 m/s 763 mmHg 64%
    10:00 +27°C° 0 mm 4 m/s 763 mmHg 48%
    11:00 +28°C° 0 mm 4 m/s 762 mmHg 44%
    12:00 +29°C° 0 mm 5 m/s 762 mmHg 39%
    13:00 +30°C° 0 mm 5 m/s 761 mmHg 35%
    14:00 +30°C° 0 mm 5 m/s 760 mmHg 37%
    15:00 +29°C° 0 mm 5 m/s 760 mmHg 40%
    16:00 +29°C° 0 mm 5 m/s 760 mmHg 42%
    17:00 +26°C° 0 mm 5 m/s 760 mmHg 55%
    18:00 +22°C° 0 mm 5 m/s 761 mmHg 68%
    19:00 +20°C° 0 mm 4 m/s 761 mmHg 82%
    20:00 +19°C° 0 mm 4 m/s 761 mmHg 86%
    21:00 +18°C° 0 mm 4 m/s 762 mmHg 90%
    22:00 +18°C° 0 mm 4 m/s 762 mmHg 95%
    23:00 +18°C° 0 mm 3 m/s 762 mmHg 95%
    Mostrar mais